TimeEST,TemperatureF,Dew PointF,Humidity,Sea Level PressureIn,VisibilityMPH,Wind Direction,Wind SpeedMPH,Gust SpeedMPH,PrecipitationIn,Events,Conditions,WindDirDegrees,DateUTC
12:53 AM,21.9,18.0,85,30.34,10.0,Calm,Calm,-,N/A,,Clear,0,2012-11-16 05:53:00
1:53 AM,21.0,17.1,85,30.35,10.0,Calm,Calm,-,N/A,,Clear,0,2012-11-16 06:53:00
2:53 AM,21.9,18.0,85,30.35,10.0,Calm,Calm,-,N/A,,Clear,0,2012-11-16 07:53:00
3:49 AM,21.2,17.6,86,30.31,10.0,Calm,Calm,-,N/A,,Partly Cloudy,0,2012-11-16 08:49:00
3:53 AM,21.0,17.1,85,30.34,10.0,Calm,Calm,-,N/A,,Partly Cloudy,0,2012-11-16 08:53:00
4:46 AM,21.2,15.8,80,30.32,10.0,Calm,Calm,-,N/A,,Mostly Cloudy,0,2012-11-16 09:46:00
4:53 AM,19.9,16.0,85,30.35,10.0,Calm,Calm,-,N/A,,Mostly Cloudy,0,2012-11-16 09:53:00
5:07 AM,21.2,17.6,86,30.32,10.0,Calm,Calm,-,N/A,,Partly Cloudy,0,2012-11-16 10:07:00
5:53 AM,19.9,16.0,85,30.35,10.0,Calm,Calm,-,N/A,,Clear,0,2012-11-16 10:53:00
6:21 AM,21.2,15.8,80,30.32,10.0,Calm,Calm,-,N/A,,Scattered Clouds,0,2012-11-16 11:21:00
6:30 AM,21.2,17.6,86,30.32,10.0,NE,4.6,-,N/A,,Mostly Cloudy,40,2012-11-16 11:30:00
6:53 AM,24.1,21.0,88,30.37,7.0,NNE,3.5,-,N/A,,Overcast,20,2012-11-16 11:53:00
7:09 AM,24.8,21.2,86,30.33,2.0,NE,3.5,-,N/A,,Overcast,40,2012-11-16 12:09:00
7:17 AM,24.8,21.2,86,30.34,1.2,NE,3.5,-,N/A,,Overcast,50,2012-11-16 12:17:00
7:25 AM,24.8,21.2,86,30.34,3.0,NE,3.5,-,N/A,,Overcast,40,2012-11-16 12:25:00
7:53 AM,24.1,21.9,91,30.38,6.0,Calm,Calm,-,N/A,,Overcast,0,2012-11-16 12:53:00
8:53 AM,26.1,23.0,88,30.40,7.0,Calm,Calm,-,N/A,,Overcast,0,2012-11-16 13:53:00
9:12 AM,26.6,23.0,86,30.36,7.0,Calm,Calm,-,N/A,,Scattered Clouds,0,2012-11-16 14:12:00
9:53 AM,28.0,23.0,81,30.40,9.0,Calm,Calm,-,N/A,,Scattered Clouds,0,2012-11-16 14:53:00
10:53 AM,30.9,25.0,79,30.40,10.0,Calm,Calm,-,N/A,,Clear,0,2012-11-16 15:53:00
11:53 AM,34.0,25.0,70,30.36,10.0,Calm,Calm,-,N/A,,Clear,0,2012-11-16 16:53:00
12:53 PM,37.9,24.1,57,30.35,10.0,Calm,Calm,-,N/A,,Clear,0,2012-11-16 17:53:00
1:53 PM,42.1,25.0,51,30.34,10.0,Calm,Calm,-,N/A,,Clear,0,2012-11-16 18:53:00
2:53 PM,42.1,25.0,51,30.35,10.0,Calm,Calm,-,N/A,,Clear,0,2012-11-16 19:53:00
3:53 PM,41.0,26.1,55,30.36,10.0,Calm,Calm,-,N/A,,Clear,0,2012-11-16 20:53:00
4:53 PM,32.0,25.0,75,30.39,10.0,Calm,Calm,-,N/A,,Clear,0,2012-11-16 21:53:00
5:53 PM,28.0,23.0,81,30.41,10.0,Calm,Calm,-,N/A,,Clear,0,2012-11-16 22:53:00
6:53 PM,26.1,23.0,88,30.43,10.0,Calm,Calm,-,N/A,,Clear,0,2012-11-16 23:53:00
7:53 PM,26.1,21.9,84,30.45,10.0,Calm,Calm,-,N/A,,Clear,0,2012-11-17 00:53:00
8:53 PM,25.0,21.0,85,30.47,10.0,Calm,Calm,-,N/A,,Clear,0,2012-11-17 01:53:00
9:53 PM,24.1,19.9,84,30.48,10.0,Calm,Calm,-,N/A,,Clear,0,2012-11-17 02:53:00
10:53 PM,24.1,19.9,84,30.49,10.0,Calm,Calm,-,N/A,,Clear,0,2012-11-17 03:53:00
11:53 PM,23.0,19.0,85,30.49,10.0,South,4.6,-,N/A,,Partly Cloudy,170,2012-11-17 04:53:00